Location: Unspecified
(33.6682°S, 0.0000°E)
Time: 20:29:07
(UTC+00:00)

Courier 1B - Pass Details

Date: 25 June 2019
Orbit: 963 x 1209 km, 28.3° (Epoch: 19 July)

Event Time Altitude Azimuth Distance (km) Brightness Sun altitude
Exits shadow 04:20:00 30° 355° (N) 1,923 9.0 -33.4°
Maximum altitude 04:21:45 33° 20° (NNE) 1,792 9.0 -33.1°
Drops below altitude 10° 04:28:02 10° 81° (E) 2,920 10.9 -31.8°
Sets 04:30:59 0° 90° (E) 3,837 11.7 -31.2°
